[[{"header":{"parameterUnit":"m.s-1","parameterCategory":1,"la1":30.2991,"la2":30.254,"lo1":-89.0895,"lo2":-89.0444,"dy":0.0017,"dx":0.0017,"nx":28,"ny":28,"refTime":"2023-10-07T21:00:00:Z","depth":0,"parameterNumber":2,"parameterNumberName":"U-component_of_WINDS"},"data":[0,0,0,0,0,0,0,0,0,0,0,0,0,0,0,0,0,0,0,0,0,0,0,0,0,0,0,0,0,0,0,0,0,0,0,0,0,0,0,0,0,0,0,0,0,0,0,0,0,0,0,0,0,0,0,0,0,0,-0.5169,-0.5171,0,-0.5288,-0.529,-0.5291,-0.5376,-0.5377,-0.5377,-0.5378,-0.5498,-0.55,-0.5503,0,0,0,0,0,0,0,0,0,0,0,0,0,-0.5013,-0.5016,-0.5169,-0.5171,-0.5172,-0.5288,-0.529,-0.5292,-0.5376,-0.5377,-0.5377,-0.5378,-0.5497,-0.55,-0.5503,0,0,0,0,0,0,0,0,0,0,0,0,0,-0.5102,-0.5017,-0.5169,-0.5228,-0.5235,-0.5288,-0.529,-0.5292,-0.5376,-0.5377,-0.5378,-0.5379,-0.5496,-0.55,-0.5504,-0.5507,0,0,-0.5515,-0.5517,0,0,0,0,0,0,0,0,-0.5096,-0.5107,-0.5218,-0.5224,-0.5232,-0.5318,-0.5279,-0.5364,-0.5375,-0.5322,-0.5378,-0.5379,-0.5437,-0.5446,-0.5466,-0.5512,-0.5518,-0.5516,-0.5518,-0.552,-0.5521,0,0,0,0,0,0,0,-0.509,-0.5103,-0.5216,-0.5219,-0.5228,-0.5249,-0.5262,-0.5296,-0.5372,-0.5327,-0.5333,-0.5346,-0.5441,-0.5462,-0.5469,-0.5519,-0.5516,-0.5519,-0.5521,-0.5523,-0.5574,-0.5573,0,0,0,0,0,0,-0.5075,-0.5097,-0.5213,-0.522,-0.5165,-0.525,-0.5266,-0.5289,-0.5372,-0.5386,-0.5345,-0.535,-0.5455,-0.5465,-0.5474,-0.5483,-0.552,-0.5523,-0.5525,-0.5575,-0.5574,-0.5573,0,0,0,0,0,0,-0.5071,-0.5085,-0.5208,-0.516,-0.5178,-0.5252,-0.5278,-0.5291,-0.5312,-0.5386,-0.54,-0.5353,-0.5456,-0.5469,-0.5498,-0.5488,-0.5525,-0.5528,-0.5576,-0.5575,-0.5574,-0.55,0,0,0,0,0,0,-0.5067,-0.5083,-0.5085,-0.516,-0.518,-0.523,-0.5277,-0.5293,-0.5319,-0.5326,-0.5397,-0.541,-0.5458,-0.5492,-0.5502,-0.5494,-0.5531,-0.5578,-0.5576,-0.5574,-0.5504,-0.5496,-0.549,0,0,0,0,0,-0.5061,-0.5059,-0.5084,-0.5098,-0.5184,-0.5229,-0.5241,-0.5297,-0.5318,-0.532,-0.5368,-0.5407,-0.5488,-0.5494,-0.5506,-0.5499,-0.5578,-0.5576,-0.5574,-0.5507,-0.5498,-0.549,0,0,0,0,0,0,-0.498,-0.507,-0.5099,-0.5122,-0.5167,-0.5243,-0.5248,-0.5286,-0.5326,-0.533,-0.5398,-0.5414,-0.5436,-0.5471,-0.5476,-0.5507,-0.5538,-0.5538,-0.5483,-0.5475,-0.5468,-0.5458,-0.5535,0,0,0,0,0,-0.4965,-0.4995,-0.5071,-0.5084,-0.5105,-0.5173,-0.5194,-0.5234,-0.5284,-0.5303,-0.5353,-0.5399,-0.5435,-0.5457,-0.5495,-0.551,-0.5526,-0.5511,-0.5504,-0.5498,-0.5497,-0.5508,-0.5502,-0.5566,-0.5566,-0.5566,0,0,-0.4934,-0.4987,-0.5001,-0.5069,-0.5109,-0.5138,-0.5188,-0.5216,-0.5238,-0.5307,-0.5338,-0.5376,-0.5433,-0.5455,-0.5467,-0.5485,-0.5483,-0.5496,-0.549,-0.5493,-0.5505,-0.5499,-0.5493,-0.5565,-0.5565,-0.5565,0,0,-0.4891,-0.4935,-0.495,-0.4989,-0.5049,-0.5094,-0.5098,-0.5169,-0.5197,-0.523,-0.5282,-0.5309,-0.537,-0.5407,-0.5434,-0.5408,-0.5445,-0.5418,-0.5382,-0.5391,-0.5386,-0.5382,-0.5371,-0.5367,-0.5417,-0.5417,-0.5417,0,-0.4845,-0.489,-0.4952,-0.4978,-0.5006,-0.5071,-0.5087,-0.5122,-0.519,-0.5208,-0.5227,-0.5305,-0.5348,-0.5379,-0.5373,-0.5393,-0.5399,-0.5409,-0.5382,-0.5378,-0.5375,-0.5366,-0.5362,-0.5413,-0.5414,-0.5414,-0.5414,0,-0.483,-0.4861,-0.4866,-0.4931,-0.496,-0.498,-0.5045,-0.5067,-0.5104,-0.5147,-0.5179,-0.5233,-0.5282,-0.5293,-0.533,-0.533,-0.5339,-0.5369,-0.5402,-0.5364,-0.5357,-0.5354,-0.5408,-0.5409,-0.541,-0.5411,0,0,-0.4738,-0.4839,-0.4839,-0.487,-0.4942,-0.4967,-0.499,-0.5039,-0.5056,-0.5102,-0.5122,-0.5173,-0.5201,-0.5232,-0.5274,-0.5282,-0.5257,-0.5312,-0.5314,-0.5298,-0.526,-0.5236,-0.5231,-0.5283,-0.5283,-0.5282,-0.5255,0,-0.4705,-0.4751,-0.4808,-0.4833,-0.4863,-0.4926,-0.4946,-0.4992,-0.5033,-0.5064,-0.511,-0.5144,-0.5179,-0.5198,-0.521,-0.5257,-0.525,-0.526,-0.5302,-0.5302,-0.5284,-0.5227,-0.5201,-0.5173,-0.5252,-0.5252,-0.5252,0,-0.4673,-0.4716,-0.4745,-0.4815,-0.4829,-0.4846,-0.4896,-0.4925,-0.4978,-0.5008,-0.5042,-0.5088,-0.5115,-0.5146,-0.5184,-0.519,-0.5211,-0.5237,-0.5237,-0.5242,-0.5273,-0.5228,-0.5165,-0.516,-0.5248,-0.5248,-0.5248,0,-0.4601,-0.4667,-0.4692,-0.4717,-0.4799,-0.481,-0.4845,-0.49,-0.4926,-0.4969,-0.4986,-0.5032,-0.5057,-0.5091,-0.5148,-0.5165,-0.518,-0.5215,-0.5204,-0.5202,-0.5203,-0.5201,-0.514,-0.5218,-0.5218,-0.5219,-0.5219,0,-0.4558,-0.4572,-0.4661,-0.4677,-0.4695,-0.4761,-0.4778,-0.4818,-0.4867,-0.4891,-0.4949,-0.4971,-0.5045,-0.5075,-0.512,-0.5144,-0.5155,-0.5179,-0.519,-0.5173,-0.517,-0.5186,-0.5189,-0.5218,-0.5218,-0.5218,-0.5218,0,-0.448,-0.454,-0.4572,-0.4648,-0.4668,-0.4678,-0.4743,-0.476,-0.4806,-0.4836,-0.4846,-0.4917,-0.4956,-0.5016,-0.5073,-0.5103,-0.5119,-0.5139,-0.5101,-0.5107,-0.5093,-0.5092,-0.5038,-0.5034,-0.5116,-0.5115,-0.5114,0,-0.4447,-0.446,-0.4538,-0.4559,-0.4592,-0.4624,-0.4651,-0.4717,-0.4743,-0.4806,-0.4815,-0.4859,-0.4897,-0.4956,-0.5012,-0.5055,-0.5076,-0.5054,-0.5082,-0.5064,-0.5074,-0.5071,-0.5073,-0.5046,-0.5045,-0.5044,-0.5043,0,-0.4382,-0.4412,-0.4449,-0.4496,-0.4527,-0.4567,-0.4611,-0.4624,-0.47,-0.4725,-0.4766,-0.4796,-0.4854,-0.4896,-0.4948,-0.4983,-0.5025,-0.5034,-0.5034,-0.5015,-0.4991,-0.5003,-0.5081,-0.5034,-0.5035,-0.5036,-0.5036,-0.5037,-0.4325,-0.434,-0.4397,-0.4436,-0.4476,-0.4515,-0.4535,-0.4584,-0.4619,-0.4671,-0.4709,-0.4747,-0.4801,-0.4875,-0.4909,-0.4939,-0.4958,-0.4957,-0.4957,-0.4955,-0.4948,-0.4988,-0.4949,-0.495,-0.495,-0.495,-0.495,0,-0.4262,-0.4303,-0.4338,-0.4397,-0.4428,-0.4467,-0.4517,-0.454,-0.4573,-0.462,-0.4657,-0.4704,-0.4745,-0.4805,-0.4851,-0.4864,-0.4885,-0.4874,-0.4873,-0.488,-0.493,-0.4925,-0.4857,-0.4857,-0.4857,-0.4857,-0.4857,-0.4857,-0.4233,-0.4259,-0.4295,-0.4342,-0.4383,-0.4421,-0.4446,-0.4482,-0.4521,-0.4571,-0.4606,-0.4645,-0.4698,-0.4748,-0.4788,-0.4805,-0.4818,-0.4801,-0.4823,-0.4868,-0.4877,-0.4885,-0.488,-0.4804,-0.4804,-0.4771,-0.4771,-0.477]},{"header":{"parameterUnit":"m.s-1","parameterCategory":1,"la1":30.2991,"la2":30.254,"lo1":-89.0895,"lo2":-89.0444,"dy":0.0017,"dx":0.0017,"nx":28,"ny":28,"refTime":"2023-10-07T21:00:00:Z","depth":0,"parameterNumber":3,"parameterNumberName":"V-component_of_WINDS"},"data":[0,0,0,0,0,0,0,0,0,0,0,0,0,0,0,0,0,0,0,0,0,0,0,0,0,0,0,0,0,0,0,0,0,0,0,0,0,0,0,0,0,0,0,0,0,0,0,0,0,0,0,0,0,0,0,0,0,0,-1.1203,-1.1203,0,-1.1207,-1.1207,-1.1207,-1.1205,-1.1205,-1.1205,-1.1205,-1.121,-1.121,-1.121,0,0,0,0,0,0,0,0,0,0,0,0,0,-1.1195,-1.1195,-1.1203,-1.1203,-1.1203,-1.1207,-1.1207,-1.1207,-1.1205,-1.1205,-1.1205,-1.1205,-1.121,-1.121,-1.121,0,0,0,0,0,0,0,0,0,0,0,0,0,-1.1198,-1.1195,-1.1203,-1.1202,-1.1202,-1.1207,-1.1207,-1.1207,-1.1205,-1.1205,-1.1205,-1.1204,-1.121,-1.121,-1.1211,-1.1216,0,0,-1.1212,-1.1212,0,0,0,0,0,0,0,0,-1.1198,-1.1199,-1.1203,-1.1203,-1.1203,-1.1205,-1.1206,-1.121,-1.1205,-1.1204,-1.1205,-1.1204,-1.1209,-1.1209,-1.121,-1.1216,-1.1217,-1.1212,-1.1212,-1.1212,-1.1212,0,0,0,0,0,0,0,-1.1198,-1.1199,-1.1205,-1.1203,-1.1203,-1.1202,-1.1203,-1.1207,-1.1207,-1.1204,-1.1204,-1.1204,-1.1209,-1.121,-1.121,-1.1217,-1.1212,-1.1212,-1.1212,-1.1212,-1.1228,-1.1228,0,0,0,0,0,0,-1.1198,-1.1198,-1.1205,-1.1205,-1.12,-1.1203,-1.1203,-1.1205,-1.1207,-1.1207,-1.1205,-1.1204,-1.1209,-1.121,-1.1211,-1.1217,-1.1212,-1.1212,-1.1213,-1.1227,-1.1228,-1.1228,0,0,0,0,0,0,-1.1197,-1.1198,-1.1204,-1.1201,-1.1202,-1.1203,-1.1205,-1.1205,-1.1206,-1.1208,-1.1208,-1.1206,-1.1209,-1.121,-1.1215,-1.1217,-1.1213,-1.1213,-1.1227,-1.1227,-1.1228,-1.1231,0,0,0,0,0,0,-1.1197,-1.1198,-1.12,-1.1202,-1.1202,-1.1208,-1.1205,-1.1205,-1.1206,-1.1206,-1.1209,-1.1209,-1.1209,-1.1214,-1.1215,-1.1218,-1.1213,-1.1227,-1.1227,-1.1228,-1.123,-1.1231,-1.1231,0,0,0,0,0,-1.1197,-1.1201,-1.12,-1.1201,-1.1205,-1.1208,-1.1209,-1.1209,-1.1207,-1.1209,-1.121,-1.1209,-1.1217,-1.1215,-1.1216,-1.1218,-1.1227,-1.1227,-1.1228,-1.123,-1.1231,-1.1231,0,0,0,0,0,0,-1.12,-1.1201,-1.12,-1.1205,-1.1206,-1.1208,-1.1211,-1.121,-1.1212,-1.1212,-1.1212,-1.1212,-1.1217,-1.1218,-1.1216,-1.1224,-1.1222,-1.1222,-1.1223,-1.1224,-1.1224,-1.1224,-1.1214,0,0,0,0,0,-1.1201,-1.1204,-1.1205,-1.1209,-1.121,-1.121,-1.1211,-1.1211,-1.1213,-1.1214,-1.1215,-1.1217,-1.122,-1.1222,-1.1225,-1.123,-1.1231,-1.1233,-1.1233,-1.1234,-1.1235,-1.1237,-1.1238,-1.1229,-1.1229,-1.1229,0,0,-1.1204,-1.1205,-1.1207,-1.1209,-1.1211,-1.1213,-1.121,-1.1214,-1.1216,-1.1214,-1.1218,-1.1219,-1.1222,-1.1227,-1.1229,-1.1228,-1.1237,-1.1234,-1.1235,-1.1235,-1.1238,-1.1239,-1.124,-1.1229,-1.1229,-1.1229,0,0,-1.1211,-1.1211,-1.1215,-1.1216,-1.1217,-1.1217,-1.1218,-1.122,-1.122,-1.1224,-1.1223,-1.1226,-1.1231,-1.1233,-1.1234,-1.1241,-1.124,-1.1242,-1.1245,-1.1248,-1.1248,-1.1249,-1.1251,-1.1252,-1.1242,-1.1242,-1.1242,0,-1.1214,-1.1217,-1.1217,-1.122,-1.1221,-1.1219,-1.1223,-1.1224,-1.1227,-1.1228,-1.1226,-1.1232,-1.1234,-1.1239,-1.1241,-1.1242,-1.1243,-1.1241,-1.1248,-1.1249,-1.125,-1.1252,-1.1253,-1.1242,-1.1242,-1.1242,-1.1242,0,-1.1221,-1.1224,-1.1227,-1.1229,-1.123,-1.1233,-1.1233,-1.1235,-1.1235,-1.1235,-1.1239,-1.1241,-1.1244,-1.1245,-1.1245,-1.125,-1.1249,-1.1248,-1.1246,-1.1251,-1.1253,-1.1253,-1.1243,-1.1243,-1.1243,-1.1242,0,0,-1.123,-1.1231,-1.1232,-1.1233,-1.1235,-1.1237,-1.124,-1.1242,-1.1244,-1.1246,-1.1248,-1.1253,-1.1251,-1.1253,-1.1253,-1.1255,-1.126,-1.1254,-1.1254,-1.1255,-1.1266,-1.1267,-1.1268,-1.126,-1.126,-1.126,-1.1266,0,-1.1237,-1.1242,-1.1241,-1.1246,-1.1248,-1.1247,-1.1249,-1.1251,-1.1251,-1.1253,-1.1254,-1.1257,-1.1255,-1.1256,-1.1258,-1.1259,-1.1263,-1.1259,-1.1262,-1.1263,-1.1262,-1.1269,-1.127,-1.1276,-1.1267,-1.1267,-1.1267,0,-1.1245,-1.1246,-1.1251,-1.1252,-1.1253,-1.1256,-1.1258,-1.126,-1.1261,-1.1261,-1.1263,-1.1262,-1.1266,-1.1263,-1.1268,-1.1265,-1.1267,-1.1268,-1.1268,-1.1268,-1.1265,-1.127,-1.1278,-1.1279,-1.1268,-1.1268,-1.1268,0,-1.125,-1.1254,-1.1257,-1.1258,-1.1259,-1.1261,-1.1261,-1.1263,-1.1264,-1.1266,-1.1267,-1.127,-1.1271,-1.1273,-1.1273,-1.1271,-1.1278,-1.1275,-1.1278,-1.1278,-1.128,-1.128,-1.1288,-1.1281,-1.1281,-1.1281,-1.1281,0,-1.1258,-1.1261,-1.126,-1.1262,-1.1266,-1.1265,-1.1268,-1.1269,-1.127,-1.1272,-1.1271,-1.1274,-1.1273,-1.1276,-1.1276,-1.128,-1.1281,-1.1281,-1.1281,-1.1281,-1.1281,-1.1282,-1.1282,-1.1281,-1.1281,-1.1281,-1.1281,0,-1.1265,-1.1264,-1.1268,-1.1268,-1.1269,-1.1271,-1.1272,-1.1274,-1.1274,-1.1277,-1.1278,-1.1278,-1.1281,-1.1281,-1.1284,-1.1285,-1.1289,-1.1289,-1.1289,-1.1289,-1.1292,-1.1291,-1.1301,-1.1302,-1.1294,-1.1294,-1.1294,0,-1.1269,-1.1272,-1.1272,-1.1274,-1.1274,-1.1276,-1.1278,-1.1277,-1.1278,-1.128,-1.1282,-1.1284,-1.1287,-1.1291,-1.1292,-1.1294,-1.1294,-1.1297,-1.1294,-1.1294,-1.1294,-1.1294,-1.1294,-1.1298,-1.1298,-1.1298,-1.1298,0,-1.1278,-1.1277,-1.1279,-1.128,-1.1282,-1.1283,-1.1284,-1.1286,-1.1285,-1.1287,-1.1289,-1.1291,-1.1294,-1.1297,-1.1299,-1.13,-1.1299,-1.1299,-1.13,-1.13,-1.13,-1.13,-1.129,-1.1299,-1.1299,-1.1299,-1.1299,-1.1299,-1.1284,-1.1286,-1.1286,-1.1288,-1.1289,-1.129,-1.1292,-1.1292,-1.1294,-1.1296,-1.1296,-1.1298,-1.13,-1.1303,-1.1304,-1.1306,-1.1305,-1.1307,-1.1307,-1.1307,-1.1307,-1.1299,-1.1307,-1.1307,-1.1307,-1.1307,-1.1307,0,-1.1292,-1.1292,-1.1294,-1.1295,-1.1297,-1.1295,-1.1296,-1.1298,-1.13,-1.1301,-1.1303,-1.1306,-1.1309,-1.1309,-1.1312,-1.1313,-1.1313,-1.1314,-1.1314,-1.1314,-1.1308,-1.1307,-1.1314,-1.1314,-1.1314,-1.1314,-1.1314,-1.1314,-1.1296,-1.1299,-1.1299,-1.1303,-1.1303,-1.1305,-1.1306,-1.1307,-1.1308,-1.1311,-1.1313,-1.1313,-1.1314,-1.1316,-1.1319,-1.1319,-1.132,-1.1321,-1.1321,-1.1316,-1.1315,-1.1314,-1.1313,-1.1321,-1.1321,-1.1327,-1.1327,-1.1327]}]]